Location: Alessandria
(44.9000°N, 8.6170°E)
Time: 03:16:12
(UTC+02:00)

ISS - Pass Details

Date: 16 May 2021
Orbit: 417 x 422 km, 51.6° (Epoch: 14 June)

Event Time Altitude Azimuth Distance (km) Brightness Sun altitude
Rises 02:51:48 0° 300° (WNW) 2,372 0.2 -22.8°
Reaches altitude 10° 02:53:58 10° 307° (NW) 1,507 -0.8 -22.6°
Maximum altitude 02:57:12 42° 20° (NNE) 616 -2.5 -22.4°
Drops below altitude 10° 03:00:27 10° 93° (E) 1,505 -0.7 -22.2°
Sets 03:02:37 0° 101° (E) 2,368 0.3 -22.0°
